Tracking 19831 objects as of 23-Aug-2019
HD Live streaming from Space Station
objects crossing your sky now

COSMOS 2251 DEB


COSMOS 2251 DEB is no longer on orbit


NORAD ID: 33820
Int'l Code: 1993-036BM
Perigee: N/A
Apogee: N/A
Inclination: N/A
Period: N/A
Semi major axis: N/A
RCS: N/A
Launch date: June 16, 1993
Source: Commonwealth of Independent States (former USSR) (CIS)
Launch site: PLESETSK MISSILE AND SPACE COMPLEX (PKMTR)
Decay date: 2012-03-19

Note: This is SATELLITE DEBRIS
aabbcc
Your satellite tracking list
Your tracking list is empty




NASA's NSSDC Master Catalog

Two Line Element Set (TLE):
1 33820U 93036BM  12078.93458026  .26398842  19940-5  16319-2 0  9994
2 33820 074.0602 229.0207 0021364 081.5876 292.1018 16.39287914170078
Source of the keplerian elements: AFSPC